Regional Weather Roundup
Issued by NWS

Home | Current Version | Previous Version | Text Only | Print | Product List | Glossary On
Versions: 1 2 3 4 5 6 7 8 9 10 11 12 13 14 15 16 17 18 19 20 21 22 23 24 25 26 27 28 29 30 31 32 33 34 35 36 37 38 39 40 41 42 43 44 45 46 47 48 49 50
000
ASUS44 KJAN 240203
RWRMS

MISSISSIPPI HOURLY WEATHER ROUNDUP
NATIONAL WEATHER SERVICE JACKSON MS
800 PM CST SUN NOV 23 2014

NOTE: "FAIR: INDICATES FEW OR NO CLOUDS BELOW 12,000 FEET WITH NO
SIGNIFICANT WEATHER AND/OR OBSTRUCTIONS TO VISIBILITY.

MSZ001>002-007>008-010>013-018>021-025>028-034>036-240300-
NORTHWEST MISSISSIPPI

CITY           SKY/WX    TMP DP  RH WIND       PRES   REMARKS
CLARKSDALE     FAIR      61  61 100 S9        29.49R
CLEVELAND      FAIR      60  59  97 S9        29.49R
GREENWOOD      CLEAR     60  57  89 S9        29.51S
GREENVILLE     CLEAR     63  58  83 S14       29.49R
GRENADA        FAIR      59  55  88 CALM      29.52R
OLIVE BRANCH   CLOUDY    61  61 100 S18       29.47R
OXFORD         MOCLDY    59  57  94 S8        29.52R
TUNICA         CLOUDY    61  59  94 S15       29.48R
$$

MSZ003>006-009-014>017-022>024-029>033-037>039-240300-
NORTHEAST MISSISSIPPI

CITY           SKY/WX    TMP DP  RH WIND       PRES   REMARKS
COLUMBUS AFB   CLEAR     63  57  82 S10       29.57R
CORINTH        CLOUDY    63  57  82 S14G20    29.50R
GOLDN TRIANGLE CLEAR     61  55  82 S13       29.56
STARKVILLE       N/A     59  55  88 S6        29.56R
TUPELO         PTCLDY    60  57  89 S12       29.53R
$$

MSZ040-058-240300-
CENTRAL MISSISSIPPI

CITY           SKY/WX    TMP DP  RH WIND       PRES   REMARKS
JACKSON INTL   CLEAR     64  56  75 S13       29.60R
JACKSON HAWKNS CLEAR     65  54  67 S13       29.59R
MERIDIAN KEY   CLEAR     62  58  86 S14       29.62R
MERIDIAN NAS   CLEAR     65  58  78 S10       29.62R
RAYMOND        FAIR      64  59  82 S13G20    29.58R
VICKSBURG      CLEAR     65  55  70 S10       29.57R
$$

MSZ059>079-240300-
SOUTH MISSISSIPPI

CITY           SKY/WX    TMP DP  RH WIND       PRES   REMARKS
BROOKHAVEN     FAIR      64  61  88 S13       29.64R
HATTIESBURG    CLEAR     64  59  83 S8        29.68R
MCCOMB         MOCLDY    64  60  87 S12       29.66R
NATCHEZ        CLEAR     64  57  77 S8        29.63R
PINE BELT      CLEAR     63  55  77 S10       29.67R
$$

MSZ080>082-240300-
COASTAL MISSISSIPPI

CITY           SKY/WX    TMP DP  RH WIND       PRES   REMARKS
BILOXI         MOCLDY    64  64 100 S15       29.72R
PASCAGOULA     MOCLDY    68  65  90 S12       29.72R
GULFPORT       CLOUDY    66  65  96 S10G18    29.71R
$$



USA.gov is the U.S. government's official web portal to all federal, state and local government web resources and services.